Location: Unspecified
(0.0000°N, 0.0000°E)
Time: 19:37:11
(UTC+00:00)

Hubble Space Telescope - Pass Details

Date: 01 June 2023
Orbit: 525 x 528 km, 28.5° (Epoch: 04 June)

Event Time Altitude Azimuth Distance (km) Brightness Sun altitude
Rises 20:18:26 0° 293° (WNW) 2,635 5.4 -32.2°
Reaches altitude 10° 20:20:42 10° 289° (WNW) 1,748 4.2 -32.7°
Enters shadow 20:21:46 17° 285° (WNW) 1,346 3.4 -33.0°
